EW6950 Weather Reports


time (UTC)temp
C
wind
direction
speed
KPH
gust
KPH
rain 1hr
cm
rain 24hr
cm
rain mn
cm
humidity
%
barometer
mb
20260507105452 12 315 1.6 4.8 0.00 0.00 0.00 77 1014.7
20260507104937 12 313 1.6 4.8 0.00 0.00 0.00 77 1014.7
20260507104438 11 292 1.6 4.8 0.00 0.00 0.00 78 1014.7
20260507103934 12 293 1.6 6.4 0.00 0.00 0.00 78 1014.7
20260507103434 11 287 1.6 6.4 0.00 0.00 0.00 79 1014.7
20260507102434 11 324 0.0 4.8 0.00 0.00 0.00 80 1014.6
20260507101434 11 315 1.6 4.8 0.00 0.00 0.00 80 1014.6
20260507100931 11 319 1.6 4.8 0.00 0.00 0.00 80 1014.6
20260507095931 11 351 1.6 4.8 0.00 0.00 0.00 80 1014.4
20260507095427 11 330 1.6 4.8 0.00 0.00 0.00 80 1014.4
20260507094420 11 323 1.6 6.4 0.00 0.00 0.00 80 1014.4
20260507093920 11 315 3.2 8.0 0.00 0.00 0.00 80 1014.4
20260507093419 11 313 3.2 8.0 0.00 0.00 0.00 80 1014.3
20260507092920 11 246 3.2 8.0 0.00 0.00 0.00 81 1014.4
20260507092420 11 323 3.2 8.0 0.00 0.00 0.00 82 1014.3
20260507091419 11 30 3.2 6.4 0.00 0.00 0.00 82 1014.3
20260507090419 11 340 3.2 8.0 0.00 0.00 0.00 83 1014.1
20260507085919 11 309 3.2 6.4 0.00 0.00 0.00 83 1014.1
20260507084919 10 313 1.6 6.4 0.00 0.00 0.00 83 1014.1
20260507084420 10 311 3.2 9.7 0.00 0.00 0.00 84 1014.0
20260507083912 10 320 3.2 9.7 0.00 0.00 0.00 84 1014.0
20260507083411 10 327 3.2 8.0 0.00 0.00 0.00 84 1014.0
20260507082911 10 5 3.2 6.4 0.00 0.00 0.00 85 1013.9
20260507082411 10 5 3.2 6.4 0.00 0.00 0.00 86 1014.0
20260507081912 10 328 3.2 8.0 0.00 0.00 0.00 86 1013.9
20260507080907 9 323 1.6 6.4 0.00 0.00 0.00 86 1013.8
20260507080407 9 306 3.2 8.0 0.00 0.00 0.00 86 1013.8
20260507075908 9 301 3.2 8.0 0.00 0.00 0.00 87 1013.8
20260507075408 9 334 3.2 8.0 0.00 0.00 0.00 87 1013.8
20260507074907 9 319 3.2 11.3 0.00 0.00 0.00 87 1013.8
20260507074407 9 300 3.2 11.3 0.00 0.00 0.00 87 1013.7
20260507073907 9 317 3.2 9.7 0.00 0.00 0.00 87 1013.7
20260507073408 9 311 4.8 9.7 0.00 0.00 0.00 87 1013.6
20260507072905 9 321 3.2 9.7 0.00 0.00 0.00 88 1013.5
20260507072405 9 309 3.2 16.1 0.00 0.00 0.00 88 1013.5
20260507071905 9 282 3.2 16.1 0.00 0.03 0.00 88 1013.5
20260507071405 9 304 3.2 9.7 0.00 0.03 0.00 89 1013.5
20260507070405 9 328 3.2 11.3 0.00 0.03 0.00 89 1013.4
20260507065406 9 327 4.8 12.9 0.00 0.05 0.00 89 1013.3
20260507064902 9 309 3.2 12.9 0.00 0.05 0.00 89 1013.3
20260507064403 8 321 3.2 9.7 0.00 0.05 0.00 89 1013.1
20260507063903 8 261 3.2 9.7 0.00 0.05 0.00 90 1013.1
20260507063402 8 337 3.2 8.0 0.00 0.05 0.00 90 1013.0
20260507062902 8 280 3.2 8.0 0.00 0.05 0.00 90 1013.0
20260507062402 8 311 3.2 8.0 0.00 0.05 0.00 90 1013.0
20260507061858 8 306 3.2 6.4 0.00 0.05 0.00 91 1013.0
20260507061356 8 324 3.2 6.4 0.00 0.08 0.00 91 1012.9
20260507060847 8 284 1.6 6.4 0.00 0.08 0.00 91 1012.9
20260507060343 8 324 1.6 6.4 0.00 0.08 0.00 91 1012.9
20260507055843 8 311 3.2 6.4 0.00 0.08 0.00 92 1012.8
20260507055344 8 307 1.6 6.4 0.00 0.08 0.00 92 1012.8
20260507054839 8 315 1.6 6.4 0.00 0.10 0.00 92 1012.7
20260507054337 8 321 1.6 4.8 0.00 0.10 0.00 92 1012.7
20260507052835 8 330 1.6 3.2 0.00 0.15 0.00 92 1012.5
20260507052336 7 251 1.6 6.4 0.00 0.15 0.00 92 1012.5
20260507051831 7 246 1.6 6.4 0.00 0.15 0.00 92 1012.5
20260507051334 7 313 1.6 3.2 0.00 0.15 0.00 92 1012.4
20260507050831 7 314 1.6 3.2 0.00 0.18 0.00 92 1012.3
20260507050333 7 313 1.6 3.2 0.00 0.18 0.00 92 1012.3
20260507045830 7 287 1.6 3.2 0.00 0.18 0.00 92 1012.2
20260507045329 7 287 1.6 3.2 0.00 0.18 0.00 92 1012.2
20260507044829 7 305 1.6 4.8 0.00 0.18 0.00 92 1012.1
20260507044323 7 308 1.6 6.4 0.00 0.18 0.00 92 1011.9
20260507043817 7 313 1.6 3.2 0.00 0.18 0.00 92 1011.9
20260507043317 7 313 0.0 3.2 0.00 0.18 0.00 92 1011.8
20260507042815 7 313 0.0 3.2 0.00 0.18 0.00 92 1011.8
20260507042315 7 313 0.0 3.2 0.00 0.18 0.00 92 1011.7
20260507041809 7 313 0.0 3.2 0.00 0.18 0.00 92 1011.7
20260507041309 7 313 0.0 3.2 0.00 0.18 0.00 92 1011.6
20260507040809 7 313 1.6 4.8 0.00 0.18 0.00 92 1011.6
20260507040309 7 312 1.6 4.8 0.00 0.18 0.00 92 1011.6
20260507035809 7 311 0.0 3.2 0.00 0.18 0.00 92 1011.5
20260507035319 7 311 0.0 1.6 0.00 0.18 0.00 92 1011.5
20260507034807 7 311 0.0 3.2 0.00 0.18 0.00 92 1011.5
20260507034305 7 311 1.6 4.8 0.00 0.18 0.00 92 1011.5
20260507033305 7 315 1.6 3.2 0.00 0.18 0.00 92 1011.4
20260507032306 7 313 1.6 6.4 0.00 0.18 0.00 92 1011.4
20260507031801 7 288 1.6 4.8 0.00 0.18 0.00 92 1011.3
20260507031301 7 279 1.6 3.2 0.00 0.18 0.00 92 1011.3
20260507030801 7 264 1.6 3.2 0.00 0.18 0.00 92 1011.3
20260507030301 7 264 0.0 1.6 0.00 0.18 0.00 92 1011.3
20260507025801 7 264 0.0 0.0 0.00 0.18 0.00 92 1011.3
20260507025259 7 264 0.0 1.6 0.00 0.18 0.00 92 1011.3
20260507024257 7 264 0.0 1.6 0.00 0.18 0.00 92 1011.3
20260507023757 7 264 0.0 1.6 0.00 0.18 0.00 92 1011.3
20260507022755 7 264 0.0 1.6 0.00 0.18 0.00 91 1011.3
20260507022255 7 264 0.0 1.6 0.00 0.18 0.00 91 1011.3
20260507021755 7 264 0.0 1.6 0.00 0.18 0.00 91 1011.2
20260507021253 7 264 1.6 4.8 0.00 0.18 0.00 91 1011.2
20260507020753 7 264 1.6 4.8 0.00 0.18 0.00 91 1011.2
20260507020253 7 241 1.6 4.8 0.00 0.18 0.00 91 1011.1
20260507015753 7 241 1.6 6.4 0.00 0.18 0.00 91 1011.1
20260507015246 7 240 1.6 6.4 0.00 0.18 0.00 91 1011.0
20260507014740 7 242 1.6 4.8 0.00 0.18 0.00 91 1011.1
20260507014236 7 257 1.6 8.0 0.00 0.18 0.00 91 1011.1
20260507013733 7 250 1.6 8.0 0.00 0.18 0.00 91 1011.0
20260507013232 7 248 1.6 6.4 0.00 0.18 0.00 91 1011.1
20260507012733 7 250 1.6 4.8 0.00 0.18 0.00 91 1011.0
20260507012233 7 249 1.6 8.0 0.00 0.18 0.00 90 1011.0
20260507011733 7 247 1.6 8.0 0.00 0.18 0.00 90 1011.0
20260507011233 7 247 1.6 8.0 0.00 0.18 0.00 90 1010.9
20260507010733 7 311 3.2 6.4 0.00 0.18 0.00 90 1011.0
20260507010233 7 317 3.2 9.7 0.00 0.18 0.00 90 1011.0
20260507005732 7 300 1.6 9.7 0.00 0.18 0.00 90 1010.9
20260507004733 7 306 3.2 6.4 0.00 0.18 0.00 89 1010.8
20260507004231 7 314 1.6 6.4 0.00 0.18 0.00 89 1010.8
20260507003732 7 325 1.6 6.4 0.00 0.18 0.00 89 1010.7
20260507002732 7 273 1.6 6.4 0.00 0.18 0.00 89 1010.7
20260507002231 7 298 1.6 4.8 0.00 0.18 0.00 89 1010.7
20260507001731 7 296 1.6 4.8 0.00 0.18 0.00 89 1010.7
20260507001230 7 281 1.6 3.2 0.00 0.18 0.00 89 1010.6
20260507000732 7 282 1.6 3.2 0.00 0.18 0.00 89 1010.6
20260507000231 7 265 0.0 3.2 0.00 0.18 0.00 89 1010.5
20260506235732 7 265 1.6 4.8 0.00 0.18 0.00 89 1010.6
20260506235231 7 265 1.6 6.4 0.00 0.18 0.00 89 1010.6
20260506234732 7 263 1.6 6.4 0.00 0.18 0.00 89 1010.5
20260506234231 7 313 3.2 6.4 0.00 0.18 0.00 89 1010.5
20260506233732 7 320 3.2 6.4 0.00 0.18 0.00 89 1010.5
20260506232732 7 319 3.2 6.4 0.00 0.18 0.00 89 1010.5
20260506232231 7 309 3.2 6.4 0.00 0.18 0.00 89 1010.5
20260506231732 7 313 3.2 14.5 0.00 0.18 0.00 89 1010.4
20260506231231 7 271 4.8 14.5 0.00 0.18 0.00 89 1010.4
20260506230732 7 355 3.2 12.9 0.00 0.18 0.00 89 1010.5
20260506224732 8 309 3.2 11.3 0.00 0.18 0.00 89 1010.4
20260506224233 8 325 3.2 11.3 0.00 0.18 0.00 89 1010.4
20260506223732 8 306 3.2 8.0 0.00 0.18 0.00 89 1010.4
20260506223233 8 313 3.2 8.0 0.00 0.18 0.00 89 1010.4
20260506222732 8 311 3.2 6.4 0.00 0.18 0.00 89 1010.3
20260506222233 8 304 3.2 6.4 0.00 0.18 0.00 89 1010.3
20260506221731 8 315 3.2 6.4 0.00 0.18 0.00 89 1010.2
20260506221234 8 308 3.2 6.4 0.00 0.18 0.00 89 1010.2
20260506220731 8 313 1.6 4.8 0.00 0.18 0.00 89 1010.1
20260506220232 8 307 1.6 4.8 0.00 0.18 0.00 89 1010.0
20260506215731 8 300 1.6 3.2 0.00 0.18 0.18 89 1010.0
20260506215232 8 286 1.6 3.2 0.00 0.18 0.18 89 1010.0
20260506214231 8 281 1.6 3.2 0.00 0.18 0.18 88 1009.9
20260506213731 8 321 1.6 4.8 0.00 0.18 0.18 88 1009.8
20260506213232 8 326 3.2 11.3 0.00 0.18 0.18 88 1009.8
20260506212731 8 309 3.2 11.3 0.00 0.18 0.18 88 1009.7
20260506212231 8 320 3.2 6.4 0.00 0.18 0.18 89 1009.6
20260506211732 8 320 1.6 4.8 0.00 0.18 0.18 89 1009.7
20260506211232 8 301 1.6 3.2 0.00 0.18 0.18 89 1009.6
20260506210731 8 317 1.6 3.2 0.00 0.18 0.18 89 1009.6
20260506210232 8 316 0.0 3.2 0.00 0.18 0.18 89 1009.6
20260506205231 8 316 1.6 3.2 0.00 0.18 0.18 88 1009.5
20260506204231 8 315 0.0 3.2 0.00 0.25 0.18 88 1009.6
20260506203731 8 315 1.6 3.2 0.00 0.25 0.18 88 1009.5
20260506203231 8 315 1.6 3.2 0.00 0.25 0.18 88 1009.4
20260506202731 8 317 3.2 8.0 0.00 0.25 0.18 88 1009.4
20260506202231 8 311 3.2 8.0 0.00 0.25 0.18 87 1009.3
20260506201731 9 266 3.2 6.4 0.00 0.30 0.18 87 1009.4
20260506201231 9 315 3.2 6.4 0.00 0.33 0.18 87 1009.3
20260506200731 9 319 3.2 8.0 0.00 0.36 0.18 87 1009.3
20260506200231 9 261 3.2 8.0 0.00 0.41 0.18 87 1009.2
20260506195730 9 309 3.2 6.4 0.00 0.43 0.18 87 1009.2
20260506194732 9 325 1.6 4.8 0.00 0.53 0.18 87 1009.1
20260506194232 9 331 3.2 6.4 0.00 0.56 0.18 87 1008.9
20260506193731 9 318 3.2 6.4 0.00 0.58 0.18 87 1008.9
20260506193232 9 327 4.8 12.9 0.00 0.61 0.18 87 1008.8
20260506192731 9 324 4.8 12.9 0.00 0.61 0.18 87 1008.6
20260506192233 9 312 4.8 11.3 0.00 0.61 0.18 86 1008.6
20260506191731 9 306 3.2 8.0 0.00 0.61 0.18 87 1008.5
20260506191231 9 319 3.2 11.3 0.00 0.61 0.18 87 1008.5
20260506190734 9 340 3.2 11.3 0.00 0.61 0.18 87 1008.4
20260506190231 9 311 3.2 6.4 0.00 0.64 0.18 87 1008.4
20260506185733 9 315 3.2 8.0 0.00 0.64 0.18 86 1008.3
20260506185231 10 315 3.2 8.0 0.00 0.66 0.18 86 1008.3
20260506184733 10 317 3.2 8.0 0.00 0.66 0.18 86 1008.2
20260506184230 10 315 4.8 8.0 0.00 0.66 0.18 86 1008.2
20260506183733 10 311 3.2 9.7 0.00 0.66 0.18 86 1008.1
20260506183231 10 324 4.8 16.1 0.00 0.69 0.18 86 1008.1
20260506182733 10 319 3.2 16.1 0.00 0.69 0.18 86 1008.1
20260506182231 10 289 3.2 9.7 0.00 0.69 0.18 86 1008.0
20260506181733 10 38 3.2 8.0 0.00 0.71 0.18 86 1007.9
20260506181231 10 288 1.6 6.4 0.00 0.71 0.18 86 1007.8
20260506180733 10 315 3.2 11.3 0.00 0.71 0.18 86 1007.8
20260506175733 10 309 4.8 11.3 0.00 0.71 0.18 86 1007.7
20260506173231 10 247 6.4 19.3 0.00 0.74 0.18 87 1007.6
20260506172733 10 328 6.4 19.3 0.00 0.74 0.18 86 1007.5
20260506172231 10 331 4.8 16.1 0.00 0.74 0.18 87 1007.5
20260506171231 11 323 4.8 12.9 0.00 0.74 0.18 87 1007.4
20260506170733 11 336 4.8 12.9 0.00 0.74 0.18 87 1007.4
20260506170231 11 319 4.8 12.9 0.00 0.74 0.18 87 1007.4
20260506165733 11 350 3.2 12.9 0.00 0.74 0.18 87 1007.4
20260506165231 10 338 4.8 12.9 0.00 0.74 0.18 87 1007.4
20260506164734 10 315 4.8 14.5 0.00 0.74 0.18 87 1007.4
20260506163733 10 309 4.8 11.3 0.00 0.74 0.18 87 1007.4
20260506163231 11 284 4.8 16.1 0.00 0.74 0.18 86 1007.4
20260506162734 11 328 4.8 16.1 0.00 0.74 0.18 86 1007.4
20260506162231 11 318 4.8 12.9 0.00 0.74 0.18 86 1007.3
20260506161231 11 300 4.8 14.5 0.00 0.74 0.18 85 1007.3
20260506160731 11 302 4.8 14.5 0.00 0.76 0.18 85 1007.3
20260506155731 11 316 3.2 9.7 0.00 0.76 0.18 85 1007.2
20260506154732 11 292 4.8 16.1 0.00 0.76 0.18 85 1007.2
20260506154229 11 319 4.8 14.5 0.00 0.79 0.18 86 1007.2
20260506153729 11 322 6.4 16.1 0.00 0.79 0.18 85 1007.1
20260506152712 12 5 4.8 11.3 0.00 0.79 0.18 84 1007.0
20260506152209 12 338 3.2 11.3 0.00 0.79 0.18 85 1006.9
20260506151712 12 276 4.8 12.9 0.00 0.79 0.18 86 1006.9
20260506151209 11 323 6.4 17.7 0.00 0.81 0.18 86 1006.9
20260506150209 12 347 6.4 16.1 0.00 0.81 0.18 84 1006.9
20260506145709 12 319 6.4 16.1 0.00 0.81 0.18 85 1006.7
20260506145208 12 340 6.4 16.1 0.00 0.84 0.18 87 1006.7
20260506144708 12 306 6.4 19.3 0.00 0.84 0.18 88 1006.6
20260506144206 12 309 4.8 19.3 0.00 0.84 0.18 89 1006.6
20260506143206 11 328 4.8 14.5 0.00 0.84 0.18 90 1006.7
20260506142706 11 248 4.8 14.5 0.00 0.86 0.18 90 1006.7
20260506141706 11 316 3.2 8.0 0.00 0.86 0.18 91 1006.9
20260506141206 10 337 4.8 8.0 0.00 0.86 0.18 91 1006.8
20260506140706 10 313 4.8 8.0 0.00 0.86 0.18 91 1006.9
20260506140206 10 355 3.2 8.0 0.00 0.86 0.18 91 1006.9
20260506135704 10 307 3.2 8.0 0.00 0.86 0.18 91 1006.9
20260506134704 11 291 4.8 12.9 0.00 0.89 0.18 91 1006.9
20260506134204 11 328 3.2 11.3 0.00 0.89 0.18 91 1006.9
20260506133707 11 252 3.2 8.0 0.00 0.89 0.18 91 1006.9
20260506133205 11 320 3.2 8.0 0.00 0.89 0.18 91 1006.9
20260506132707 11 323 3.2 6.4 0.00 0.89 0.18 91 1006.9
20260506132202 11 327 3.2 9.7 0.00 0.89 0.18 91 1006.9
20260506131202 10 309 4.8 12.9 0.00 0.91 0.18 91 1006.8
20260506130704 11 256 4.8 12.9 0.00 0.94 0.18 91 1006.7
20260506130201 11 304 4.8 11.3 0.00 0.97 0.18 91 1006.7
20260506125703 11 328 4.8 14.5 0.00 0.99 0.18 91 1006.7
20260506125202 11 318 3.2 14.5 0.00 0.99 0.18 91 1006.6
20260506124704 11 314 3.2 9.7 0.00 0.99 0.18 91 1006.6
20260506124202 11 355 4.8 11.3 0.00 0.99 0.18 91 1006.5
20260506123702 11 309 4.8 11.3 0.00 1.02 0.18 91 1006.5
20260506123201 11 318 4.8 12.9 0.00 1.02 0.18 91 1006.4
20260506122702 11 321 6.4 14.5 0.00 1.02 0.18 90 1006.4
20260506122203 11 340 4.8 14.5 0.00 1.04 0.18 90 1006.3
20260506121201 11 273 3.2 11.3 0.00 1.09 0.18 90 1006.3
20260506120702 11 329 4.8 11.3 0.00 1.12 0.18 90 1006.2
20260506120202 11 351 4.8 11.3 0.00 1.12 0.18 90 1006.2
20260506115702 11 315 4.8 12.9 0.00 1.12 0.18 90 1006.2
20260506115202 11 311 3.2 12.9 0.00 1.12 0.18 90 1006.1
20260506114702 11 286 3.2 8.0 0.00 1.12 0.18 90 1006.1
20260506113702 11 323 3.2 11.3 0.00 1.12 0.18 90 1006.0
20260506113202 11 296 4.8 12.9 0.00 1.12 0.18 90 1006.0
20260506112702 11 286 4.8 12.9 0.00 1.12 0.18 90 1005.9
20260506111702 11 308 3.2 9.7 0.00 1.12 0.18 91 1005.9
20260506111201 11 355 3.2 9.7 0.00 1.12 0.18 91 1005.8
20260506110702 11 333 4.8 11.3 0.00 1.12 0.18 91 1005.8